Change the Weather History Date:

Friday, February 21, 2014

  Actual Average (KTVC) Record (KTVC)
Temperature  
Mean Temperature 32 °F 24 °F  
Max Temperature 37 °F 32 °F 57 °F (1930)
Min Temperature 23 °F 16 °F -14 °F (1918)
Degree Days  
Heating Degree Days 34 41  
Month to date heating degree days 902  
Since 1 July heating degree days 5058  
Moisture  
Dew Point 23 °F    
Average Humidity 77    
Maximum Humidity 93    
Minimum Humidity 67    
Precipitation  
Precipitation 0.00 in 0.05 in 0.51 in (1937)
Month to date precipitation 1.12  
Year to date precipitation 3.94  
Sea Level Pressure  
Sea Level Pressure 29.29 in    
Wind  
Wind Speed 22 mph (SW)    
Max Wind Speed 28 mph    
Max Gust Speed 43 mph    
Visibility 8 miles    
Events Rain , Snow    
T = Trace of Precipitation, MM = Missing Value Source: NWS Daily Summary

Daily Weather History Graph

Daily Weather History Graph

Search for Another Location

Airport or City:

Trip Planner

Search our weather history database for the weather conditions in past years. The results will help you decide how hot, cold, wet, or windy it might be!

Date:

Astronomy

Feb. 21, 2014 Rise Set
Actual Time 7:35 AM EST 6:21 PM EST
Civil Twilight 7:06 AM EST 6:51 PM EST
Nautical Twilight 6:32 AM EST 7:25 PM EST
Astronomical Twilight 5:58 AM EST 7:59 PM EST
Moon 12:30 AM EST (2/21) 10:43 AM EST (2/21)
Length of Visible Light 11h 45m
Length of Day
10h 46m
Waning Gibbous, 61% of the Moon is Illuminated
Feb 21
Waning Gibbous
Feb 22
Last Quarter
Mar 1
New
Mar 8
First Quarter
Mar 16
Full

Hourly Weather History & Observations

Time (EST) Temp. Windchill Dew Point Humidity Pressure Visibility Wind Dir Wind Speed Gust Speed Precip Events Conditions
12:14 AM 40.3 °F 31.0 °F 38.1 °F 92% 29.13 in 4.0 mi SSE 19.6 mph 31.1 mph N/A Rain Light Rain
12:34 AM 39.6 °F 28.7 °F 37.6 °F 93% 29.15 in 4.0 mi SSW 25.3 mph 36.8 mph N/A   Drizzle
12:54 AM 36.9 °F 25.9 °F 34.2 °F 90% 29.15 in 5.0 mi South 21.9 mph 33.4 mph N/A   Overcast
1:14 AM 36.7 °F 25.1 °F 32.5 °F 85% 29.14 in 10.0 mi South 24.2 mph 34.5 mph N/A   Overcast
1:34 AM 37.0 °F 25.4 °F 32.0 °F 82% 29.13 in 10.0 mi South 25.3 mph 33.4 mph N/A   Overcast
1:55 AM 36.9 °F 26.5 °F 31.8 °F 82% 29.13 in 10.0 mi South 19.6 mph 31.1 mph N/A   Overcast
2:15 AM 37.0 °F 26.7 °F 31.3 °F 80% 29.13 in 10.0 mi South 19.6 mph 34.5 mph N/A   Overcast
2:35 AM 37.0 °F 26.7 °F 31.1 °F 79% 29.13 in 10.0 mi South 19.6 mph 31.1 mph N/A   Overcast
2:55 AM 36.7 °F 26.9 °F 31.1 °F 80% 29.12 in 10.0 mi South 17.3 mph 32.2 mph N/A   Overcast
3:15 AM 36.7 °F 26.3 °F 30.9 °F 80% 29.11 in 10.0 mi South 19.6 mph 28.8 mph N/A   Overcast
3:35 AM 36.7 °F 25.1 °F 30.9 °F 80% 29.11 in 10.0 mi South 24.2 mph 34.5 mph N/A   Overcast
3:55 AM 36.7 °F 26.3 °F 30.9 °F 80% 29.12 in 10.0 mi SSW 19.6 mph 40.3 mph N/A   Overcast
4:16 AM 36.5 °F 24.9 °F 30.7 °F 80% 29.13 in 10.0 mi South 24.2 mph 38.0 mph N/A   Overcast
4:36 AM 36.5 °F 25.2 °F 30.7 °F 80% 29.14 in 10.0 mi SSW 23.0 mph 33.4 mph N/A   Overcast
4:56 AM 36.1 °F 25.0 °F 30.2 °F 79% 29.15 in 10.0 mi South 21.9 mph 35.7 mph N/A   Overcast
5:11 AM 36.0 °F 23.7 °F 30.2 °F 80% 29.14 in 10.0 mi South 26.5 mph 42.6 mph N/A   Overcast
5:31 AM 35.6 °F 24.2 °F 30.6 °F 82% 29.14 in 10.0 mi South 21.9 mph 41.4 mph N/A   Overcast
5:51 AM 35.1 °F 22.7 °F 30.6 °F 84% 29.14 in 10.0 mi SSW 25.3 mph 39.1 mph N/A   Overcast
6:11 AM 34.7 °F 22.8 °F 30.2 °F 84% 29.13 in 10.0 mi SSW 23.0 mph 34.5 mph N/A   Overcast
6:32 AM 34.2 °F 22.3 °F 29.3 °F 82% 29.13 in 10.0 mi SSW 21.9 mph 34.5 mph N/A   Overcast
6:52 AM 33.8 °F 21.0 °F 28.9 °F 82% 29.15 in 10.0 mi SSW 25.3 mph 38.0 mph N/A   Overcast
7:12 AM 32.4 °F 19.7 °F 27.3 °F 82% 29.15 in 7.0 mi SSW 23.0 mph 40.3 mph N/A Snow Light Snow
7:32 AM 32.0 °F 20.1 °F 27.5 °F 83% 29.16 in 3.0 mi SSW 19.6 mph 36.8 mph N/A Snow Light Snow
7:53 AM 30.9 °F 18.4 °F 27.9 °F 88% 29.17 in 1.0 mi SSW 20.7 mph 31.1 mph N/A Snow Light Snow
8:13 AM 30.0 °F 17.2 °F 26.6 °F 87% 29.18 in 0.8 mi SW 20.7 mph 29.9 mph N/A Snow Light Snow
8:34 AM 29.1 °F 17.5 °F 25.5 °F 86% 29.19 in 1.0 mi SW 16.1 mph 31.1 mph N/A Snow Light Snow
8:54 AM 27.9 °F 15.9 °F 24.4 °F 87% 29.20 in 0.5 mi SW 16.1 mph 32.2 mph N/A Snow Snow
9:14 AM 27.5 °F 14.2 °F 23.5 °F 85% 29.20 in 0.8 mi SW 19.6 mph 33.4 mph N/A Snow Light Snow
9:34 AM 27.0 °F 14.3 °F 22.1 °F 82% 29.21 in 1.5 mi SSW 17.3 mph 33.4 mph N/A Snow Light Snow
9:54 AM 26.2 °F 13.8 °F 20.3 °F 78% 29.22 in 1.8 mi SW 16.1 mph 33.4 mph N/A Snow Light Snow
10:15 AM 25.7 °F 9.6 °F 19.9 °F 79% 29.23 in 2.0 mi SW 27.6 mph 38.0 mph N/A Snow Light Snow
10:35 AM 25.7 °F 10.5 °F 19.8 °F 78% 29.24 in 4.0 mi SW 24.2 mph 32.2 mph N/A   Haze
10:55 AM 25.3 °F 12.2 °F 19.4 °F 78% 29.25 in 4.0 mi SW 17.3 mph 34.5 mph N/A   Haze
11:15 AM 25.0 °F 10.9 °F 19.0 °F 78% 29.26 in 5.0 mi SW 19.6 mph 31.1 mph N/A   Haze
11:35 AM 24.6 °F 9.7 °F 17.8 °F 75% 29.26 in 5.0 mi WSW 21.9 mph 32.2 mph N/A   Haze
11:55 AM 24.8 °F 12.4 °F 19.0 °F 79% 29.27 in 7.0 mi WSW 15.0 mph 26.5 mph N/A   Overcast
12:16 PM 24.6 °F 9.4 °F 18.5 °F 78% 29.28 in 4.0 mi SW 23.0 mph 33.4 mph N/A   Haze
12:36 PM 24.3 °F 9.3 °F 18.3 °F 78% 29.28 in 4.0 mi SW 21.9 mph 32.2 mph N/A   Haze
12:56 PM 23.9 °F 9.5 °F 17.6 °F 77% 29.29 in 4.0 mi WSW 19.6 mph 36.8 mph N/A   Haze
1:11 PM 23.9 °F 9.1 °F 17.2 °F 76% 29.29 in 5.0 mi WSW 20.7 mph 34.5 mph N/A   Haze
1:31 PM 24.3 °F 11.2 °F 17.6 °F 76% 29.30 in 7.0 mi WSW 16.1 mph 31.1 mph N/A   Overcast
1:51 PM 24.3 °F 11.7 °F 17.8 °F 76% 29.30 in 7.0 mi SW 15.0 mph 32.2 mph N/A   Overcast
2:12 PM 24.6 °F 11.7 °F 18.1 °F 76% 29.31 in 10.0 mi SW 16.1 mph 35.7 mph N/A   Overcast
2:32 PM 24.8 °F 9.6 °F 18.1 °F 76% 29.32 in 10.0 mi WSW 23.0 mph 35.7 mph N/A   Overcast
2:52 PM 25.2 °F 11.6 °F 18.5 °F 76% 29.32 in 10.0 mi WSW 18.4 mph 32.2 mph N/A   Overcast
3:12 PM 25.2 °F 10.1 °F 18.1 °F 75% 29.33 in 10.0 mi WSW 23.0 mph 34.5 mph N/A   Overcast
3:32 PM 25.5 °F 10.0 °F 18.5 °F 75% 29.35 in 10.0 mi WSW 25.3 mph 36.8 mph N/A   Overcast
3:52 PM 25.3 °F 11.0 °F 18.3 °F 75% 29.35 in 10.0 mi WSW 20.7 mph 33.4 mph N/A   Overcast
4:13 PM 25.7 °F 12.3 °F 18.5 °F 74% 29.36 in 10.0 mi WSW 18.4 mph 33.4 mph N/A   Overcast
4:33 PM 26.1 °F 11.3 °F 18.9 °F 74% 29.37 in 10.0 mi WSW 23.0 mph 31.1 mph N/A   Overcast
4:53 PM 26.2 °F 11.9 °F 19.4 °F 75% 29.38 in 10.0 mi SW 21.9 mph 34.5 mph N/A   Overcast
5:13 PM 26.6 °F 13.1 °F 19.9 °F 76% 29.39 in 10.0 mi WSW 19.6 mph 28.8 mph N/A   Overcast
5:33 PM 27.1 °F 13.4 °F 20.1 °F 75% 29.40 in 10.0 mi WSW 20.7 mph 36.8 mph N/A   Overcast
5:53 PM 27.3 °F 12.7 °F 20.3 °F 75% 29.41 in 10.0 mi WSW 24.2 mph 35.7 mph N/A   Overcast
6:14 PM 27.5 °F 12.6 °F 20.3 °F 74% 29.41 in 10.0 mi WSW 25.3 mph 35.7 mph N/A   Overcast
6:34 PM 27.5 °F 13.5 °F 19.6 °F 72% 29.43 in 10.0 mi WSW 21.9 mph 34.5 mph N/A   Overcast
6:54 PM 27.1 °F 11.8 °F 19.2 °F 72% 29.44 in 10.0 mi WSW 26.5 mph 38.0 mph N/A   Overcast
7:14 PM 27.3 °F 12.4 °F 18.7 °F 70% 29.45 in 10.0 mi West 25.3 mph 41.4 mph N/A   Overcast
7:34 PM 27.5 °F 12.3 °F 18.3 °F 68% 29.46 in 10.0 mi WSW 26.5 mph 38.0 mph N/A   Overcast
7:54 PM 27.5 °F 12.3 °F 17.8 °F 67% 29.47 in 10.0 mi WSW 26.5 mph 39.1 mph N/A   Overcast
8:15 PM 27.5 °F 13.9 °F 17.8 °F 67% 29.48 in 10.0 mi West 20.7 mph 32.2 mph N/A   Overcast
8:35 PM 27.1 °F 12.7 °F 17.6 °F 67% 29.49 in 10.0 mi WSW 23.0 mph 32.2 mph N/A   Overcast
8:55 PM 27.1 °F 12.7 °F 18.3 °F 69% 29.49 in 10.0 mi West 23.0 mph 36.8 mph N/A   Overcast
9:15 PM 26.8 °F 11.9 °F 17.2 °F 67% 29.50 in 10.0 mi WSW 24.2 mph 35.7 mph N/A   Overcast
9:35 PM 27.0 °F 12.8 °F 18.0 °F 69% 29.51 in 10.0 mi WSW 21.9 mph 34.5 mph N/A   Overcast
9:56 PM 26.6 °F 12.7 °F 17.4 °F 68% 29.53 in 10.0 mi WSW 20.7 mph 34.5 mph N/A   Overcast
10:16 PM 25.9 °F 11.1 °F 16.5 °F 68% 29.54 in 10.0 mi WSW 23.0 mph 36.8 mph N/A   Overcast
10:31 PM 25.5 °F 10.6 °F 16.7 °F 69% 29.54 in 10.0 mi WSW 23.0 mph 34.5 mph N/A   Overcast
10:51 PM 24.8 °F 9.3 °F 16.3 °F 70% 29.55 in 10.0 mi WSW 24.2 mph 33.4 mph N/A   Overcast
11:12 PM 24.4 °F 11.9 °F 16.5 °F 72% 29.56 in 10.0 mi West 15.0 mph 31.1 mph N/A   Overcast
11:32 PM 24.1 °F 8.3 °F 16.2 °F 72% 29.57 in 10.0 mi West 24.2 mph 33.4 mph N/A   Overcast
11:52 PM 23.5 °F 8.0 °F 15.6 °F 72% 29.57 in 10.0 mi West 23.0 mph 35.7 mph N/A   Overcast